Time,TemperatureF,DewpointF,PressureIn,WindDirection,WindDirectionDegrees,WindSpeedMPH,WindSpeedGustMPH,Humidity,HourlyPrecipIn,Conditions,Clouds,dailyrainin,SoftwareType,DateUTC
2013-10-22 00:01:00,42.4,37.3,30.02,SE,138,1.2,1.2,82,0.00,CLR,,0.00,WeatherDisplay:10.37,2013-10-22 05:01:00,
2013-10-22 00:06:00,42.2,37.4,30.02,SE,138,1.2,0.0,83,0.00,CLR,,0.00,WeatherDisplay:10.37,2013-10-22 05:06:00,
2013-10-22 00:11:00,42.0,37.2,30.02,SE,138,0.0,0.0,83,0.00,CLR,,0.00,WeatherDisplay:10.37,2013-10-22 05:11:00,
2013-10-22 00:16:00,41.8,37.3,30.02,SE,138,0.0,0.0,84,0.00,CLR,,0.00,WeatherDisplay:10.37,2013-10-22 05:16:00,
2013-10-22 00:21:00,41.5,37.0,30.01,SE,138,0.0,0.0,84,0.00,CLR,,0.00,WeatherDisplay:10.37,2013-10-22 05:21:00,
2013-10-22 00:26:00,41.1,36.9,30.01,SE,138,0.0,0.0,85,0.00,CLR,,0.00,WeatherDisplay:10.37,2013-10-22 05:26:00,
2013-10-22 00:31:00,40.7,36.8,30.01,SE,138,1.2,0.0,86,0.00,CLR,,0.00,WeatherDisplay:10.37,2013-10-22 05:31:00,
2013-10-22 00:36:00,40.2,36.6,30.00,SE,138,1.2,1.2,87,0.00,CLR,,0.00,WeatherDisplay:10.37,2013-10-22 05:36:00,
2013-10-22 00:41:00,39.7,35.9,30.00,SE,138,1.2,1.2,86,0.00,CLR,,0.00,WeatherDisplay:10.37,2013-10-22 05:41:00,
2013-10-22 00:47:00,39.2,35.4,30.00,SE,139,1.2,1.2,86,0.00,CLR,,0.00,WeatherDisplay:10.37,2013-10-22 05:47:00,
2013-10-22 00:52:00,38.8,35.6,30.00,SE,138,0.0,0.0,88,0.00,CLR,,0.00,WeatherDisplay:10.37,2013-10-22 05:52:00,
2013-10-22 00:57:00,38.6,35.6,30.00,SE,138,0.0,0.0,89,0.00,CLR,,0.00,WeatherDisplay:10.37,2013-10-22 05:57:00,
2013-10-22 01:02:00,38.3,35.3,30.00,SE,138,0.0,0.0,89,0.00,CLR,,0.00,WeatherDisplay:10.37,2013-10-22 06:02:00,
2013-10-22 01:07:00,38.3,35.6,30.00,SE,138,0.0,0.0,90,0.00,CLR,,0.00,WeatherDisplay:10.37,2013-10-22 06:07:00,
2013-10-22 01:12:00,38.3,35.9,30.00,SE,138,0.0,0.0,91,0.00,CLR,,0.00,WeatherDisplay:10.37,2013-10-22 06:12:00,
2013-10-22 01:17:00,38.3,35.9,30.00,SE,138,0.0,0.0,91,0.00,CLR,,0.00,WeatherDisplay:10.37,2013-10-22 06:17:00,
2013-10-22 01:22:00,38.4,36.0,29.99,SE,138,0.0,0.0,91,0.00,CLR,,0.00,WeatherDisplay:10.37,2013-10-22 06:22:00,
2013-10-22 01:27:00,38.5,36.4,29.99,SE,138,0.0,0.0,92,0.00,CLR,,0.00,WeatherDisplay:10.37,2013-10-22 06:27:00,
2013-10-22 01:32:00,38.8,36.7,30.00,SE,138,0.0,0.0,92,0.00,CLR,,0.00,WeatherDisplay:10.37,2013-10-22 06:32:00,
2013-10-22 01:37:00,39.1,36.7,30.00,SE,138,2.3,2.3,91,0.00,CLR,,0.00,WeatherDisplay:10.37,2013-10-22 06:37:00,
2013-10-22 01:42:00,39.3,36.9,30.00,SE,138,1.2,1.2,91,0.00,CLR,,0.00,WeatherDisplay:10.37,2013-10-22 06:42:00,
2013-10-22 01:47:00,39.4,37.0,30.00,SE,138,0.0,0.0,91,0.00,CLR,,0.00,WeatherDisplay:10.37,2013-10-22 06:47:00,
2013-10-22 01:52:00,39.5,36.8,30.00,SE,138,0.0,0.0,90,0.00,CLR,,0.00,WeatherDisplay:10.37,2013-10-22 06:52:00,
2013-10-22 01:57:00,39.6,36.9,30.00,SE,138,0.0,0.0,90,0.00,CLR,,0.00,WeatherDisplay:10.37,2013-10-22 06:57:00,
2013-10-22 02:02:00,39.7,37.0,30.00,SE,138,0.0,0.0,90,0.00,CLR,,0.00,WeatherDisplay:10.37,2013-10-22 07:02:00,
2013-10-22 02:07:00,39.7,36.7,29.99,SE,138,0.0,0.0,89,0.00,CLR,,0.00,WeatherDisplay:10.37,2013-10-22 07:07:00,
2013-10-22 02:12:00,39.8,37.1,29.99,SE,138,0.0,0.0,90,0.00,CLR,,0.00,WeatherDisplay:10.37,2013-10-22 07:12:00,
2013-10-22 02:17:00,39.9,36.9,29.99,SE,138,0.0,0.0,89,0.00,CLR,,0.00,WeatherDisplay:10.37,2013-10-22 07:17:00,
2013-10-22 02:22:00,40.0,37.0,29.99,SE,138,0.0,0.0,89,0.00,CLR,,0.00,WeatherDisplay:10.37,2013-10-22 07:22:00,
2013-10-22 02:27:00,40.2,37.5,29.99,South,175,2.3,2.3,90,0.00,CLR,,0.00,WeatherDisplay:10.37,2013-10-22 07:27:00,
2013-10-22 02:32:00,40.3,37.3,30.00,West,261,3.0,3.0,89,0.00,CLR,,0.00,WeatherDisplay:10.37,2013-10-22 07:32:00,
2013-10-22 02:37:00,40.5,37.5,29.99,WNW,292,2.3,2.3,89,0.00,CLR,,0.00,WeatherDisplay:10.37,2013-10-22 07:37:00,
2013-10-22 02:42:00,40.7,37.4,30.00,WNW,293,3.5,3.5,88,0.00,CLR,,0.00,WeatherDisplay:10.37,2013-10-22 07:42:00,
2013-10-22 02:47:00,40.9,37.3,30.00,WNW,286,3.5,3.5,87,0.00,CLR,,0.00,WeatherDisplay:10.37,2013-10-22 07:47:00,
2013-10-22 02:52:00,41.2,37.6,30.00,WNW,286,2.3,2.3,87,0.00,CLR,,0.00,WeatherDisplay:10.37,2013-10-22 07:52:00,
2013-10-22 02:57:00,41.4,38.1,29.99,WNW,286,1.2,1.2,88,0.00,CLR,,0.00,WeatherDisplay:10.37,2013-10-22 07:57:00,
2013-10-22 03:02:00,41.5,38.2,30.00,WNW,286,1.2,1.2,88,0.00,CLR,,0.00,WeatherDisplay:10.37,2013-10-22 08:02:00,
2013-10-22 03:07:00,41.9,38.0,29.99,West,276,2.3,2.3,86,0.00,CLR,,0.00,WeatherDisplay:10.37,2013-10-22 08:07:00,
2013-10-22 03:12:00,42.4,37.9,29.99,West,276,2.3,2.3,84,0.00,CLR,,0.00,WeatherDisplay:10.37,2013-10-22 08:12:00,
2013-10-22 03:17:00,42.7,37.9,29.99,WNW,283,3.5,3.5,83,0.00,CLR,,0.00,WeatherDisplay:10.37,2013-10-22 08:17:00,
2013-10-22 03:22:00,42.9,38.1,29.99,WNW,284,3.5,3.5,83,0.00,CLR,,0.00,WeatherDisplay:10.37,2013-10-22 08:22:00,
2013-10-22 03:27:00,43.1,38.0,29.99,WNW,301,3.5,3.5,82,0.00,CLR,,0.00,WeatherDisplay:10.37,2013-10-22 08:27:00,
2013-10-22 03:32:00,43.2,37.8,29.99,West,276,3.5,3.5,81,0.00,CLR,,0.00,WeatherDisplay:10.37,2013-10-22 08:32:00,
2013-10-22 03:37:00,43.4,37.6,29.98,West,265,3.5,3.5,80,0.00,CLR,,0.00,WeatherDisplay:10.37,2013-10-22 08:37:00,
2013-10-22 03:42:00,43.5,37.4,29.98,West,261,5.8,5.8,79,0.00,CLR,,0.00,WeatherDisplay:10.37,2013-10-22 08:42:00,
2013-10-22 03:47:00,43.6,37.5,29.98,West,269,6.0,6.0,79,0.00,CLR,,0.00,WeatherDisplay:10.37,2013-10-22 08:47:00,
2013-10-22 03:52:00,43.6,37.5,29.98,West,263,4.0,4.0,79,0.00,CLR,,0.00,WeatherDisplay:10.37,2013-10-22 08:52:00,
2013-10-22 03:57:00,43.6,37.5,29.98,West,264,5.8,5.8,79,0.00,CLR,,0.00,WeatherDisplay:10.37,2013-10-22 08:57:00,
2013-10-22 04:02:00,43.5,37.4,29.98,West,263,5.8,5.8,79,0.00,CLR,,0.00,WeatherDisplay:10.37,2013-10-22 09:02:00,
2013-10-22 04:07:00,43.5,37.4,29.97,West,264,3.5,3.5,79,0.00,CLR,,0.00,WeatherDisplay:10.37,2013-10-22 09:07:00,
2013-10-22 04:12:00,43.3,37.5,29.97,West,278,4.0,4.0,80,0.00,CLR,,0.00,WeatherDisplay:10.37,2013-10-22 09:12:00,
2013-10-22 04:17:00,43.1,37.3,29.97,WNW,286,3.5,3.5,80,0.00,CLR,,0.00,WeatherDisplay:10.37,2013-10-22 09:17:00,
2013-10-22 04:22:00,42.9,37.2,29.97,WNW,286,3.5,3.5,80,0.00,CLR,,0.00,WeatherDisplay:10.37,2013-10-22 09:22:00,
2013-10-22 04:27:00,42.7,37.3,29.97,WNW,292,6.9,6.9,81,0.00,CLR,,0.00,WeatherDisplay:10.37,2013-10-22 09:27:00,
2013-10-22 04:32:00,42.6,37.5,29.97,WNW,285,5.8,5.8,82,0.00,CLR,,0.00,WeatherDisplay:10.37,2013-10-22 09:32:00,
2013-10-22 04:37:00,42.6,37.5,29.97,WNW,298,6.9,6.9,82,0.00,CLR,,0.00,WeatherDisplay:10.37,2013-10-22 09:37:00,
2013-10-22 04:42:00,42.6,37.8,29.97,West,265,8.1,8.1,83,0.00,CLR,,0.00,WeatherDisplay:10.37,2013-10-22 09:42:00,
2013-10-22 04:47:00,42.7,38.2,29.97,West,263,8.1,8.1,84,0.00,CLR,,0.00,WeatherDisplay:10.37,2013-10-22 09:47:00,
2013-10-22 04:52:00,42.9,38.4,29.97,West,262,8.1,8.1,84,0.00,CLR,,0.00,WeatherDisplay:10.37,2013-10-22 09:52:00,
2013-10-22 04:57:00,43.1,38.9,29.97,NW,304,6.9,6.9,85,0.00,CLR,,0.00,WeatherDisplay:10.37,2013-10-22 09:57:00,
2013-10-22 05:03:00,43.3,39.4,29.96,West,281,6.9,6.9,86,0.00,CLR,,0.00,WeatherDisplay:10.37,2013-10-22 10:03:00,
2013-10-22 05:08:00,43.6,39.7,29.96,West,275,8.1,8.1,86,0.00,CLR,,0.00,WeatherDisplay:10.37,2013-10-22 10:08:00,
2013-10-22 05:13:00,43.9,40.0,29.96,West,276,9.2,9.2,86,0.00,CLR,,0.00,WeatherDisplay:10.37,2013-10-22 10:13:00,
2013-10-22 05:18:00,44.1,40.2,29.96,WSW,256,10.4,10.4,86,0.00,CLR,,0.00,WeatherDisplay:10.37,2013-10-22 10:18:00,
2013-10-22 05:23:00,44.3,40.4,29.97,WNW,302,9.2,9.2,86,0.00,CLR,,0.00,WeatherDisplay:10.37,2013-10-22 10:23:00,
2013-10-22 05:28:00,44.5,40.9,29.97,West,267,8.1,8.1,87,0.00,CLR,,0.00,WeatherDisplay:10.37,2013-10-22 10:28:00,
2013-10-22 05:33:00,44.6,41.0,29.97,West,273,9.2,9.2,87,0.00,CLR,,0.00,WeatherDisplay:10.37,2013-10-22 10:33:00,
2013-10-22 05:38:00,44.7,41.1,29.97,West,275,8.1,8.1,87,0.00,CLR,,0.00,WeatherDisplay:10.37,2013-10-22 10:38:00,
2013-10-22 05:43:00,44.7,41.1,29.97,West,274,5.8,5.8,87,0.00,CLR,,0.00,WeatherDisplay:10.37,2013-10-22 10:43:00,
2013-10-22 05:48:00,44.6,41.0,29.97,West,273,9.2,9.2,87,0.00,CLR,,0.00,WeatherDisplay:10.37,2013-10-22 10:48:00,
2013-10-22 05:53:00,44.6,41.3,29.97,WNW,300,9.2,9.2,88,0.00,CLR,,0.00,WeatherDisplay:10.37,2013-10-22 10:53:00,
2013-10-22 05:58:00,44.5,41.2,29.97,West,277,5.8,5.8,88,0.00,CLR,,0.00,WeatherDisplay:10.37,2013-10-22 10:58:00,
2013-10-22 06:03:00,44.5,41.2,29.96,WNW,300,5.8,5.8,88,0.00,CLR,,0.00,WeatherDisplay:10.37,2013-10-22 11:03:00,
2013-10-22 06:08:00,44.5,41.2,29.97,WNW,288,5.8,5.8,88,0.00,CLR,,0.00,WeatherDisplay:10.37,2013-10-22 11:08:00,
2013-10-22 06:13:00,44.4,41.4,29.97,West,273,8.0,8.0,89,0.00,CLR,,0.00,WeatherDisplay:10.37,2013-10-22 11:13:00,
2013-10-22 06:18:00,44.4,41.4,29.97,WNW,287,7.0,7.0,89,0.00,CLR,,0.00,WeatherDisplay:10.37,2013-10-22 11:18:00,
2013-10-22 06:23:00,44.4,41.4,29.97,West,277,9.2,9.2,89,0.00,CLR,,0.00,WeatherDisplay:10.37,2013-10-22 11:23:00,
2013-10-22 06:28:00,44.3,41.3,29.97,West,271,7.0,7.0,89,0.00,CLR,,0.00,WeatherDisplay:10.37,2013-10-22 11:28:00,
2013-10-22 06:33:00,44.3,41.3,29.97,WNW,288,8.1,8.1,89,0.00,CLR,,0.00,WeatherDisplay:10.37,2013-10-22 11:33:00,
2013-10-22 06:38:00,44.3,41.6,29.98,WNW,296,10.4,10.4,90,0.00,CLR,,0.00,WeatherDisplay:10.37,2013-10-22 11:38:00,
2013-10-22 06:43:00,44.3,41.6,29.97,West,263,8.1,8.1,90,0.00,CLR,,0.00,WeatherDisplay:10.37,2013-10-22 11:43:00,
2013-10-22 06:48:00,44.5,41.7,29.98,WNW,282,8.1,8.1,90,0.00,CLR,,0.00,WeatherDisplay:10.37,2013-10-22 11:48:00,
2013-10-22 06:53:00,44.7,41.9,29.97,West,277,8.1,8.1,90,0.00,CLR,,0.00,WeatherDisplay:10.37,2013-10-22 11:53:00,
2013-10-22 06:58:00,45.1,42.3,29.98,WSW,250,10.4,10.4,90,0.00,CLR,,0.00,WeatherDisplay:10.37,2013-10-22 11:58:00,
2013-10-22 07:03:00,45.3,42.2,29.98,West,267,9.2,9.2,89,0.00,CLR,,0.00,WeatherDisplay:10.37,2013-10-22 12:03:00,
2013-10-22 07:08:00,45.5,42.4,29.98,WNW,300,3.5,3.5,89,0.00,CLR,,0.00,WeatherDisplay:10.37,2013-10-22 12:08:00,
2013-10-22 07:13:00,46.0,42.9,29.98,West,273,9.2,9.2,89,0.00,CLR,,0.00,WeatherDisplay:10.37,2013-10-22 12:13:00,
2013-10-22 07:18:00,46.4,43.3,29.98,WNW,288,5.8,5.8,89,0.00,CLR,,0.00,WeatherDisplay:10.37,2013-10-22 12:18:00,
2013-10-22 07:23:00,46.8,43.4,29.98,West,265,9.2,9.2,88,0.00,CLR,,0.00,WeatherDisplay:10.37,2013-10-22 12:23:00,
2013-10-22 07:28:00,47.0,43.3,29.98,WNW,299,10.4,10.4,87,0.00,CLR,,0.00,WeatherDisplay:10.37,2013-10-22 12:28:00,
2013-10-22 07:33:00,47.1,43.4,29.98,WNW,283,9.2,9.2,87,0.00,CLR,,0.00,WeatherDisplay:10.37,2013-10-22 12:33:00,
2013-10-22 07:38:00,47.0,43.3,29.98,WNW,295,8.1,8.1,87,0.00,CLR,,0.00,WeatherDisplay:10.37,2013-10-22 12:38:00,
2013-10-22 07:43:00,47.0,43.3,29.98,West,269,6.9,6.9,87,0.00,CLR,,0.00,WeatherDisplay:10.37,2013-10-22 12:43:00,
2013-10-22 07:48:00,47.1,43.4,29.98,WNW,295,9.2,9.2,87,0.00,CLR,,0.00,WeatherDisplay:10.37,2013-10-22 12:48:00,
2013-10-22 07:53:00,47.3,43.6,29.98,West,274,3.5,3.5,87,0.00,CLR,,0.00,WeatherDisplay:10.37,2013-10-22 12:53:00,
2013-10-22 07:58:00,47.4,43.4,29.98,West,280,6.9,6.9,86,0.00,CLR,,0.00,WeatherDisplay:10.37,2013-10-22 12:58:00,
2013-10-22 08:03:00,47.7,43.4,29.98,WSW,257,9.2,9.2,85,0.00,CLR,,0.00,WeatherDisplay:10.37,2013-10-22 13:03:00,
2013-10-22 08:08:00,47.8,43.5,29.98,WNW,287,9.2,9.2,85,0.00,CLR,,0.00,WeatherDisplay:10.37,2013-10-22 13:08:00,
2013-10-22 08:14:00,48.0,43.4,29.99,West,270,7.0,7.0,84,0.00,CLR,,0.00,WeatherDisplay:10.37,2013-10-22 13:14:00,
2013-10-22 08:19:00,48.0,43.4,30.00,WSW,241,9.2,9.2,84,0.00,CLR,,0.00,WeatherDisplay:10.37,2013-10-22 13:19:00,
2013-10-22 08:24:00,48.2,43.3,30.00,WNW,298,6.9,6.9,83,0.00,CLR,,0.00,WeatherDisplay:10.37,2013-10-22 13:24:00,
2013-10-22 08:29:00,48.3,43.4,30.00,North,355,12.0,12.0,83,0.00,CLR,,0.00,WeatherDisplay:10.37,2013-10-22 13:29:00,
2013-10-22 08:34:00,48.2,43.3,30.01,NW,317,6.9,6.9,83,0.00,CLR,,0.00,WeatherDisplay:10.37,2013-10-22 13:34:00,
2013-10-22 08:39:00,48.0,41.8,30.01,North,360,10.4,10.4,79,0.00,CLR,,0.00,WeatherDisplay:10.37,2013-10-22 13:39:00,
2013-10-22 08:44:00,47.7,41.5,30.01,WNW,294,5.8,6.1,79,0.00,CLR,,0.00,WeatherDisplay:10.37,2013-10-22 13:44:00,
2013-10-22 08:49:00,47.5,41.3,30.01,West,261,9.2,9.2,79,0.00,CLR,,0.00,WeatherDisplay:10.37,2013-10-22 13:49:00,
2013-10-22 08:54:00,47.3,41.1,30.01,WNW,288,11.5,11.5,79,0.00,CLR,,0.00,WeatherDisplay:10.37,2013-10-22 13:54:00,
2013-10-22 08:59:00,47.2,41.0,30.02,NNW,333,9.2,9.2,79,0.00,CLR,,0.00,WeatherDisplay:10.37,2013-10-22 13:59:00,
2013-10-22 09:04:00,47.1,41.2,30.02,West,280,11.5,11.5,80,0.00,CLR,,0.00,WeatherDisplay:10.37,2013-10-22 14:04:00,
2013-10-22 09:09:00,47.0,41.5,30.02,WNW,289,11.5,11.5,81,0.00,CLR,,0.00,WeatherDisplay:10.37,2013-10-22 14:09:00,
2013-10-22 09:14:00,46.9,41.4,30.03,West,280,12.7,12.7,81,0.00,CLR,,0.00,WeatherDisplay:10.37,2013-10-22 14:14:00,
2013-10-22 09:19:00,46.7,41.2,30.03,NW,304,10.4,10.4,81,0.00,CLR,,0.00,WeatherDisplay:10.37,2013-10-22 14:19:00,
2013-10-22 09:24:00,46.6,41.1,30.03,WSW,258,6.9,6.9,81,0.00,CLR,,0.00,WeatherDisplay:10.37,2013-10-22 14:24:00,
2013-10-22 09:29:00,46.6,41.1,30.04,WNW,291,9.2,9.2,81,0.00,CLR,,0.00,WeatherDisplay:10.37,2013-10-22 14:29:00,
2013-10-22 09:34:00,46.6,40.8,30.04,NW,305,10.4,10.4,80,0.00,CLR,,0.00,WeatherDisplay:10.37,2013-10-22 14:34:00,
2013-10-22 09:39:00,46.6,40.8,30.04,WSW,257,13.8,13.8,80,0.00,CLR,,0.00,WeatherDisplay:10.37,2013-10-22 14:39:00,
2013-10-22 09:44:00,46.7,40.9,30.04,West,275,12.0,12.0,80,0.00,CLR,,0.00,WeatherDisplay:10.37,2013-10-22 14:44:00,
2013-10-22 09:49:00,46.7,40.9,30.04,NNE,28,5.8,5.8,80,0.00,CLR,,0.00,WeatherDisplay:10.37,2013-10-22 14:49:00,
2013-10-22 09:54:00,46.8,41.0,30.04,NW,318,11.5,11.5,80,0.00,CLR,,0.00,WeatherDisplay:10.37,2013-10-22 14:54:00,
2013-10-22 09:59:00,47.0,40.5,30.04,NW,324,8.1,8.1,78,0.00,CLR,,0.00,WeatherDisplay:10.37,2013-10-22 14:59:00,
2013-10-22 10:04:00,47.3,40.5,30.05,NNW,331,9.2,9.2,77,0.00,CLR,,0.00,WeatherDisplay:10.37,2013-10-22 15:04:00,
2013-10-22 10:09:00,47.2,40.4,30.05,SW,219,11.5,11.5,77,0.00,CLR,,0.00,WeatherDisplay:10.37,2013-10-22 15:09:00,
2013-10-22 10:14:00,47.0,39.8,30.05,NW,319,10.4,10.4,76,0.00,CLR,,0.00,WeatherDisplay:10.37,2013-10-22 15:14:00,
2013-10-22 10:19:00,47.4,40.6,30.05,NW,325,10.4,10.4,77,0.00,CLR,,0.00,WeatherDisplay:10.37,2013-10-22 15:19:00,
2013-10-22 10:24:00,47.7,40.2,30.06,NW,315,9.2,9.2,75,0.00,CLR,,0.00,WeatherDisplay:10.37,2013-10-22 15:24:00,
2013-10-22 10:29:00,47.5,40.3,30.06,WNW,298,10.4,10.4,76,0.00,CLR,,0.00,WeatherDisplay:10.37,2013-10-22 15:29:00,
2013-10-22 10:34:00,47.4,40.6,30.06,West,280,10.0,10.0,77,0.00,CLR,,0.00,WeatherDisplay:10.37,2013-10-22 15:34:00,
2013-10-22 10:39:00,47.1,40.6,30.07,NW,319,10.0,10.0,78,0.00,CLR,,0.00,WeatherDisplay:10.37,2013-10-22 15:39:00,
2013-10-22 10:44:00,46.9,40.4,30.07,WSW,244,13.8,13.8,78,0.00,CLR,,0.00,WeatherDisplay:10.37,2013-10-22 15:44:00,
2013-10-22 10:49:00,46.7,40.2,30.07,NW,309,8.1,8.1,78,0.00,CLR,,0.00,WeatherDisplay:10.37,2013-10-22 15:49:00,
2013-10-22 10:54:00,47.0,40.5,30.07,NW,324,9.2,9.2,78,0.00,CLR,,0.00,WeatherDisplay:10.37,2013-10-22 15:54:00,
2013-10-22 10:59:00,47.3,40.5,30.07,West,264,9.2,9.2,77,0.00,CLR,,0.00,WeatherDisplay:10.37,2013-10-22 15:59:00,
2013-10-22 11:04:00,47.6,40.4,30.07,WSW,255,11.5,11.5,76,0.00,CLR,,0.00,WeatherDisplay:10.37,2013-10-22 16:04:00,
2013-10-22 11:09:00,47.7,40.2,30.07,WNW,290,11.5,11.5,75,0.00,CLR,,0.00,WeatherDisplay:10.37,2013-10-22 16:09:00,
2013-10-22 11:14:00,47.8,39.9,30.08,WNW,297,11.5,11.5,74,0.00,CLR,,0.00,WeatherDisplay:10.37,2013-10-22 16:14:00,
2013-10-22 11:19:00,47.9,40.0,30.08,West,277,11.5,11.5,74,0.00,CLR,,0.00,WeatherDisplay:10.37,2013-10-22 16:19:00,
2013-10-22 11:24:00,47.9,39.3,30.08,West,273,11.5,11.5,72,0.00,CLR,,0.00,WeatherDisplay:10.37,2013-10-22 16:24:00,
2013-10-22 11:29:00,47.9,39.3,30.08,NW,316,11.5,11.5,72,0.00,CLR,,0.00,WeatherDisplay:10.37,2013-10-22 16:29:00,
2013-10-22 11:34:00,48.6,40.0,30.08,NNW,348,11.5,11.5,72,0.00,CLR,,0.00,WeatherDisplay:10.37,2013-10-22 16:34:00,
2013-10-22 11:39:00,49.1,39.7,30.08,NW,306,5.8,5.8,70,0.00,CLR,,0.00,WeatherDisplay:10.37,2013-10-22 16:39:00,
2013-10-22 11:44:00,49.2,39.8,30.08,NNW,340,11.5,11.5,70,0.00,CLR,,0.00,WeatherDisplay:10.37,2013-10-22 16:44:00,
2013-10-22 11:49:00,49.2,39.1,30.09,WSW,252,7.0,7.0,68,0.00,CLR,,0.00,WeatherDisplay:10.37,2013-10-22 16:49:00,
2013-10-22 11:54:00,48.7,38.6,30.09,WSW,252,8.1,8.1,68,0.00,CLR,,0.00,WeatherDisplay:10.37,2013-10-22 16:54:00,
2013-10-22 11:59:00,48.3,37.8,30.09,NNW,340,11.5,11.5,67,0.00,CLR,,0.00,WeatherDisplay:10.37,2013-10-22 16:59:00,
2013-10-22 12:04:00,48.6,38.9,30.09,West,281,7.0,7.0,69,0.00,CLR,,0.00,WeatherDisplay:10.37,2013-10-22 17:04:00,
2013-10-22 12:09:00,48.5,38.4,30.09,West,275,12.7,12.7,68,0.00,CLR,,0.00,WeatherDisplay:10.37,2013-10-22 17:09:00,
2013-10-22 12:15:00,48.6,38.5,30.09,West,267,11.5,11.5,68,0.00,CLR,,0.00,WeatherDisplay:10.37,2013-10-22 17:15:00,
2013-10-22 12:20:00,48.4,38.3,30.10,NNE,12,11.5,11.5,68,0.00,CLR,,0.00,WeatherDisplay:10.37,2013-10-22 17:20:00,
2013-10-22 12:25:00,48.1,37.7,30.10,NW,309,12.7,12.7,67,0.00,CLR,,0.00,WeatherDisplay:10.37,2013-10-22 17:25:00,
2013-10-22 12:30:00,48.1,38.4,30.09,NNW,342,11.5,11.5,69,0.00,CLR,,0.00,WeatherDisplay:10.37,2013-10-22 17:30:00,
2013-10-22 12:35:00,48.2,38.5,30.09,NW,317,8.1,8.1,69,0.00,CLR,,0.00,WeatherDisplay:10.37,2013-10-22 17:35:00,
2013-10-22 12:40:00,48.3,38.2,30.09,WSW,246,6.9,6.9,68,0.00,CLR,,0.00,WeatherDisplay:10.37,2013-10-22 17:40:00,
2013-10-22 12:45:00,48.5,38.4,30.10,NW,321,10.4,10.4,68,0.00,CLR,,0.00,WeatherDisplay:10.37,2013-10-22 17:45:00,
2013-10-22 12:50:00,48.5,38.4,30.10,NNW,333,10.0,10.0,68,0.00,CLR,,0.00,WeatherDisplay:10.37,2013-10-22 17:50:00,
2013-10-22 12:55:00,48.4,38.7,30.10,NNW,336,9.2,9.2,69,0.00,CLR,,0.00,WeatherDisplay:10.37,2013-10-22 17:55:00,
2013-10-22 13:00:00,48.2,38.9,30.10,West,275,4.6,4.6,70,0.00,CLR,,0.00,WeatherDisplay:10.37,2013-10-22 18:00:00,
2013-10-22 13:05:00,48.0,38.3,30.10,NNE,28,7.0,7.0,69,0.00,CLR,,0.00,WeatherDisplay:10.37,2013-10-22 18:05:00,
2013-10-22 13:10:00,47.8,38.5,30.10,NW,325,12.0,12.0,70,0.00,CLR,,0.00,WeatherDisplay:10.37,2013-10-22 18:10:00,
2013-10-22 13:15:00,47.7,38.4,30.10,West,281,4.6,4.6,70,0.00,CLR,,0.00,WeatherDisplay:10.37,2013-10-22 18:15:00,
2013-10-22 13:20:00,47.6,38.3,30.10,North,355,9.0,9.0,70,0.00,CLR,,0.00,WeatherDisplay:10.37,2013-10-22 18:20:00,
2013-10-22 13:25:00,47.3,38.4,30.10,NNW,340,8.0,8.0,71,0.00,CLR,,0.00,WeatherDisplay:10.37,2013-10-22 18:25:00,
2013-10-22 13:30:00,47.0,38.4,30.10,NNW,333,11.5,11.5,72,0.00,CLR,,0.00,WeatherDisplay:10.37,2013-10-22 18:30:00,
2013-10-22 13:35:00,47.1,38.5,30.10,West,271,9.2,9.2,72,0.00,CLR,,0.00,WeatherDisplay:10.37,2013-10-22 18:35:00,
2013-10-22 13:40:00,47.6,39.0,30.10,NE,45,6.0,6.0,72,0.00,CLR,,0.00,WeatherDisplay:10.37,2013-10-22 18:40:00,
2013-10-22 13:45:00,47.7,39.1,30.10,NW,316,3.5,3.5,72,0.00,CLR,,0.00,WeatherDisplay:10.37,2013-10-22 18:45:00,
2013-10-22 13:50:00,47.8,38.8,30.10,NNW,333,4.6,4.6,71,0.00,CLR,,0.00,WeatherDisplay:10.37,2013-10-22 18:50:00,
2013-10-22 13:55:00,47.9,38.9,30.10,West,281,9.0,9.0,71,0.00,CLR,,0.00,WeatherDisplay:10.37,2013-10-22 18:55:00,
2013-10-22 14:00:00,48.0,38.3,30.10,WNW,294,9.2,9.2,69,0.00,CLR,,0.00,WeatherDisplay:10.37,2013-10-22 19:00:00,
2013-10-22 14:05:00,47.8,38.1,30.10,WNW,303,9.2,9.2,69,0.00,CLR,,0.00,WeatherDisplay:10.37,2013-10-22 19:05:00,
2013-10-22 14:10:00,47.6,38.3,30.10,NNW,327,5.8,5.8,70,0.00,CLR,,0.00,WeatherDisplay:10.37,2013-10-22 19:10:00,
2013-10-22 14:15:00,47.4,38.1,30.10,NNW,346,4.6,4.6,70,0.00,CLR,,0.00,WeatherDisplay:10.37,2013-10-22 19:15:00,
2013-10-22 14:20:00,47.2,37.5,30.10,WNW,292,8.1,8.1,69,0.00,CLR,,0.00,WeatherDisplay:10.37,2013-10-22 19:20:00,
2013-10-22 14:25:00,47.2,37.5,30.10,NW,325,10.4,10.4,69,0.00,CLR,,0.00,WeatherDisplay:10.37,2013-10-22 19:25:00,
2013-10-22 14:30:00,47.6,38.7,30.10,North,349,10.0,10.0,71,0.00,CLR,,0.00,WeatherDisplay:10.37,2013-10-22 19:30:00,
2013-10-22 14:35:00,48.6,38.9,30.10,NNW,338,10.4,10.4,69,0.00,CLR,,0.00,WeatherDisplay:10.37,2013-10-22 19:35:00,
2013-10-22 14:40:00,48.4,37.6,30.10,NNW,334,8.1,8.1,66,0.00,CLR,,0.00,WeatherDisplay:10.37,2013-10-22 19:40:00,
2013-10-22 14:45:00,47.9,37.5,30.10,NNW,330,9.2,9.2,67,0.00,CLR,,0.00,WeatherDisplay:10.37,2013-10-22 19:45:00,
2013-10-22 14:50:00,48.0,37.9,30.10,NNW,328,4.6,4.6,68,0.00,CLR,,0.00,WeatherDisplay:10.37,2013-10-22 19:50:00,
2013-10-22 14:55:00,47.5,37.1,30.10,NW,324,8.1,8.1,67,0.00,CLR,,0.00,WeatherDisplay:10.37,2013-10-22 19:55:00,
2013-10-22 15:00:00,47.2,37.2,30.10,NW,304,8.1,8.1,68,0.00,CLR,,0.00,WeatherDisplay:10.37,2013-10-22 20:00:00,
2013-10-22 15:05:00,47.2,37.2,30.10,North,360,5.8,5.8,68,0.00,CLR,,0.00,WeatherDisplay:10.37,2013-10-22 20:05:00,
2013-10-22 15:10:00,47.0,37.4,30.11,NNW,335,10.0,10.0,69,0.00,CLR,,0.00,WeatherDisplay:10.37,2013-10-22 20:10:00,
2013-10-22 15:15:00,46.9,36.9,30.11,WNW,287,11.5,11.5,68,0.00,CLR,,0.00,WeatherDisplay:10.37,2013-10-22 20:15:00,
2013-10-22 15:20:00,46.9,37.3,30.11,West,267,6.9,6.9,69,0.00,CLR,,0.00,WeatherDisplay:10.37,2013-10-22 20:20:00,
2013-10-22 15:25:00,46.8,37.5,30.11,WSW,250,8.1,8.1,70,0.00,CLR,,0.00,WeatherDisplay:10.37,2013-10-22 20:25:00,
2013-10-22 15:30:00,46.8,37.5,30.11,NW,312,4.6,4.6,70,0.00,CLR,,0.00,WeatherDisplay:10.37,2013-10-22 20:30:00,
2013-10-22 15:35:00,46.9,37.3,30.12,WNW,302,5.8,5.8,69,0.00,CLR,,0.00,WeatherDisplay:10.37,2013-10-22 20:35:00,
2013-10-22 15:40:00,47.0,37.0,30.12,WNW,295,5.8,5.8,68,0.00,CLR,,0.00,WeatherDisplay:10.37,2013-10-22 20:40:00,
2013-10-22 15:45:00,47.0,37.0,30.12,WNW,298,6.9,6.9,68,0.00,CLR,,0.00,WeatherDisplay:10.37,2013-10-22 20:45:00,
2013-10-22 15:50:00,47.1,37.1,30.12,NNW,327,9.2,9.2,68,0.00,CLR,,0.00,WeatherDisplay:10.37,2013-10-22 20:50:00,
2013-10-22 15:55:00,46.9,36.5,30.12,NW,308,9.2,9.2,67,0.00,CLR,,0.00,WeatherDisplay:10.37,2013-10-22 20:55:00,
2013-10-22 16:00:00,46.8,36.4,30.13,NNW,344,11.5,11.5,67,0.00,CLR,,0.00,WeatherDisplay:10.37,2013-10-22 21:00:00,
2013-10-22 16:05:00,46.6,36.2,30.13,WNW,287,8.1,8.1,67,0.00,CLR,,0.00,WeatherDisplay:10.37,2013-10-22 21:05:00,
2013-10-22 16:10:00,46.6,36.6,30.13,NNW,327,4.6,4.6,68,0.00,CLR,,0.00,WeatherDisplay:10.37,2013-10-22 21:10:00,
2013-10-22 16:15:00,46.6,37.0,30.13,North,355,6.0,6.0,69,0.00,CLR,,0.00,WeatherDisplay:10.37,2013-10-22 21:15:00,
2013-10-22 16:20:00,46.2,37.0,30.14,NNW,331,8.1,8.1,70,0.00,CLR,,0.00,WeatherDisplay:10.37,2013-10-22 21:20:00,
2013-10-22 16:25:00,45.8,36.9,30.14,NNW,327,4.6,4.6,71,0.00,CLR,,0.00,WeatherDisplay:10.37,2013-10-22 21:25:00,
2013-10-22 16:30:00,45.7,36.8,30.14,NW,304,4.6,4.6,71,0.00,CLR,,0.00,WeatherDisplay:10.37,2013-10-22 21:30:00,
2013-10-22 16:35:00,45.6,36.7,30.14,NNE,13,11.5,11.5,71,0.00,CLR,,0.00,WeatherDisplay:10.37,2013-10-22 21:35:00,
2013-10-22 16:40:00,45.5,36.6,30.15,North,355,4.6,4.6,71,0.00,CLR,,0.00,WeatherDisplay:10.37,2013-10-22 21:40:00,
2013-10-22 16:45:00,45.5,36.6,30.15,WSW,249,3.5,3.5,71,0.00,CLR,,0.00,WeatherDisplay:10.37,2013-10-22 21:45:00,
2013-10-22 16:50:00,45.5,36.6,30.15,NNW,343,10.4,10.4,71,0.00,CLR,,0.00,WeatherDisplay:10.37,2013-10-22 21:50:00,
2013-10-22 16:56:00,45.5,36.6,30.15,NNW,331,6.0,6.0,71,0.00,CLR,,0.00,WeatherDisplay:10.37,2013-10-22 21:56:00,
2013-10-22 17:01:00,45.4,36.5,30.15,NW,312,3.5,3.5,71,0.00,CLR,,0.00,WeatherDisplay:10.37,2013-10-22 22:01:00,
2013-10-22 17:06:00,45.4,36.5,30.16,North,11,9.0,9.0,71,0.00,CLR,,0.00,WeatherDisplay:10.37,2013-10-22 22:06:00,
2013-10-22 17:11:00,45.3,36.4,30.16,WSW,252,3.5,3.5,71,0.00,CLR,,0.00,WeatherDisplay:10.37,2013-10-22 22:11:00,
2013-10-22 17:16:00,45.3,36.4,30.16,WNW,301,3.5,3.5,71,0.00,CLR,,0.00,WeatherDisplay:10.37,2013-10-22 22:16:00,
2013-10-22 17:21:00,45.3,36.1,30.16,NW,317,8.1,8.1,70,0.00,CLR,,0.00,WeatherDisplay:10.37,2013-10-22 22:21:00,
2013-10-22 17:26:00,45.3,36.4,30.16,NNW,329,3.5,3.5,71,0.00,CLR,,0.00,WeatherDisplay:10.37,2013-10-22 22:26:00,
2013-10-22 17:31:00,45.4,36.2,30.16,NNW,333,4.6,4.6,70,0.00,CLR,,0.00,WeatherDisplay:10.37,2013-10-22 22:31:00,
2013-10-22 17:36:00,45.4,36.2,30.16,NW,319,5.8,5.8,70,0.00,CLR,,0.00,WeatherDisplay:10.37,2013-10-22 22:36:00,
2013-10-22 17:41:00,45.2,36.4,30.17,NNW,334,4.6,4.6,71,0.00,CLR,,0.00,WeatherDisplay:10.37,2013-10-22 22:41:00,
2013-10-22 17:46:00,44.9,36.4,30.17,North,349,3.5,3.5,72,0.00,CLR,,0.00,WeatherDisplay:10.37,2013-10-22 22:46:00,
2013-10-22 17:51:00,44.6,36.1,30.17,North,350,8.1,8.1,72,0.00,CLR,,0.00,WeatherDisplay:10.37,2013-10-22 22:51:00,
2013-10-22 17:56:00,44.4,36.3,30.17,NNE,25,3.5,3.5,73,0.00,CLR,,0.00,WeatherDisplay:10.37,2013-10-22 22:56:00,
2013-10-22 18:01:00,44.3,36.2,30.17,NW,326,4.6,4.6,73,0.00,CLR,,0.00,WeatherDisplay:10.37,2013-10-22 23:01:00,
2013-10-22 18:06:00,44.2,36.1,30.17,WSW,254,5.8,5.8,73,0.00,CLR,,0.00,WeatherDisplay:10.37,2013-10-22 23:06:00,
2013-10-22 18:11:00,44.2,36.1,30.18,NNW,330,3.5,3.5,73,0.00,CLR,,0.00,WeatherDisplay:10.37,2013-10-22 23:11:00,
2013-10-22 18:16:00,44.2,36.1,30.18,NW,323,3.5,3.5,73,0.00,CLR,,0.00,WeatherDisplay:10.37,2013-10-22 23:16:00,
2013-10-22 18:21:00,43.8,36.0,30.18,WNW,301,5.8,5.8,74,0.00,CLR,,0.00,WeatherDisplay:10.37,2013-10-22 23:21:00,
2013-10-22 18:26:00,43.6,35.9,30.18,NNW,333,3.5,3.5,74,0.00,CLR,,0.00,WeatherDisplay:10.37,2013-10-22 23:26:00,
2013-10-22 18:31:00,43.3,35.9,30.18,North,5,3.5,3.5,75,0.00,CLR,,0.00,WeatherDisplay:10.37,2013-10-22 23:31:00,
2013-10-22 18:36:00,42.9,35.5,30.18,NW,323,3.5,3.5,75,0.00,CLR,,0.00,WeatherDisplay:10.37,2013-10-22 23:36:00,
2013-10-22 18:41:00,42.6,35.6,30.18,NNW,333,4.6,4.6,76,0.00,CLR,,0.00,WeatherDisplay:10.37,2013-10-22 23:41:00,
2013-10-22 18:46:00,42.2,35.2,30.18,NNW,336,3.5,3.5,76,0.00,CLR,,0.00,WeatherDisplay:10.37,2013-10-22 23:46:00,
2013-10-22 18:51:00,41.8,34.8,30.19,NNW,337,3.5,3.5,76,0.00,CLR,,0.00,WeatherDisplay:10.37,2013-10-22 23:51:00,
2013-10-22 18:56:00,41.4,35.1,30.19,NNW,330,4.0,4.0,78,0.00,CLR,,0.00,WeatherDisplay:10.37,2013-10-22 23:56:00,
2013-10-22 19:01:00,41.2,34.9,30.19,NNW,340,3.5,3.5,78,0.00,CLR,,0.00,WeatherDisplay:10.37,2013-10-23 00:01:00,
2013-10-22 19:06:00,41.1,35.1,30.19,NNW,330,4.6,4.6,79,0.00,CLR,,0.00,WeatherDisplay:10.37,2013-10-23 00:06:00,
2013-10-22 19:11:00,41.0,35.0,30.20,NNW,329,4.6,4.6,79,0.00,CLR,,0.00,WeatherDisplay:10.37,2013-10-23 00:11:00,
2013-10-22 19:16:00,40.8,34.8,30.20,WNW,288,2.3,2.3,79,0.00,CLR,,0.00,WeatherDisplay:10.37,2013-10-23 00:16:00,
2013-10-22 19:21:00,40.5,34.8,30.20,North,349,3.5,3.5,80,0.00,CLR,,0.00,WeatherDisplay:10.37,2013-10-23 00:21:00,
2013-10-22 19:26:00,40.3,34.6,30.20,NNW,345,2.3,2.3,80,0.00,CLR,,0.00,WeatherDisplay:10.37,2013-10-23 00:26:00,
2013-10-22 19:31:00,40.0,34.6,30.20,North,351,1.2,1.2,81,0.00,CLR,,0.00,WeatherDisplay:10.37,2013-10-23 00:31:00,
2013-10-22 19:36:00,39.7,34.3,30.20,North,351,1.2,1.2,81,0.00,CLR,,0.00,WeatherDisplay:10.37,2013-10-23 00:36:00,
2013-10-22 19:41:00,39.4,34.4,30.20,North,355,1.2,0.0,82,0.00,CLR,,0.00,WeatherDisplay:10.37,2013-10-23 00:41:00,
2013-10-22 19:46:00,39.2,34.5,30.21,NNW,339,2.0,2.0,83,0.00,CLR,,0.00,WeatherDisplay:10.37,2013-10-23 00:46:00,
2013-10-22 19:51:00,39.1,34.4,30.21,NW,322,2.3,2.3,83,0.00,CLR,,0.00,WeatherDisplay:10.37,2013-10-23 00:51:00,
2013-10-22 19:56:00,39.1,34.4,30.20,NW,324,2.3,2.3,83,0.00,CLR,,0.00,WeatherDisplay:10.37,2013-10-23 00:56:00,
2013-10-22 20:01:00,39.1,34.4,30.20,NW,323,3.0,3.0,83,0.00,CLR,,0.00,WeatherDisplay:10.37,2013-10-23 01:01:00,
2013-10-22 20:06:00,39.3,34.6,30.20,NW,324,3.5,3.5,83,0.00,CLR,,0.00,WeatherDisplay:10.37,2013-10-23 01:06:00,
2013-10-22 20:11:00,39.4,34.7,30.20,NW,316,3.5,3.5,83,0.00,CLR,,0.00,WeatherDisplay:10.37,2013-10-23 01:11:00,
2013-10-22 20:16:00,39.5,34.8,30.20,NNW,329,3.5,3.5,83,0.00,CLR,,0.00,WeatherDisplay:10.37,2013-10-23 01:16:00,
2013-10-22 20:21:00,39.6,34.9,30.20,NW,322,2.3,2.3,83,0.00,CLR,,0.00,WeatherDisplay:10.37,2013-10-23 01:21:00,
2013-10-22 20:26:00,39.6,34.9,30.20,NW,322,1.2,1.2,83,0.00,CLR,,0.00,WeatherDisplay:10.37,2013-10-23 01:26:00,
2013-10-22 20:31:00,39.7,35.0,30.20,WNW,300,1.2,1.2,83,0.00,CLR,,0.00,WeatherDisplay:10.37,2013-10-23 01:31:00,
2013-10-22 20:36:00,39.7,35.0,30.20,NW,304,1.2,1.2,83,0.00,CLR,,0.00,WeatherDisplay:10.37,2013-10-23 01:36:00,
2013-10-22 20:41:00,39.7,35.0,30.20,NW,304,2.3,2.3,83,0.00,CLR,,0.00,WeatherDisplay:10.37,2013-10-23 01:41:00,
2013-10-22 20:46:00,39.7,35.0,30.20,NW,305,2.3,2.3,83,0.00,CLR,,0.00,WeatherDisplay:10.37,2013-10-23 01:46:00,
2013-10-22 20:51:00,39.6,34.9,30.20,WNW,294,2.3,2.3,83,0.00,CLR,,0.00,WeatherDisplay:10.37,2013-10-23 01:51:00,
2013-10-22 20:56:00,39.6,34.9,30.20,WNW,294,1.2,1.2,83,0.00,CLR,,0.00,WeatherDisplay:10.37,2013-10-23 01:56:00,
2013-10-22 21:01:00,39.6,34.9,30.21,WNW,294,2.3,2.3,83,0.00,CLR,,0.00,WeatherDisplay:10.37,2013-10-23 02:01:00,
2013-10-22 21:06:00,39.5,34.8,30.21,WNW,294,2.3,2.3,83,0.00,CLR,,0.00,WeatherDisplay:10.37,2013-10-23 02:06:00,
2013-10-22 21:11:00,39.5,34.8,30.21,WNW,295,3.5,3.5,83,0.00,CLR,,0.00,WeatherDisplay:10.37,2013-10-23 02:11:00,
2013-10-22 21:16:00,39.5,34.8,30.21,WNW,292,1.2,1.2,83,0.00,CLR,,0.00,WeatherDisplay:10.37,2013-10-23 02:16:00,
2013-10-22 21:21:00,39.5,34.8,30.20,NE,34,3.5,3.5,83,0.00,CLR,,0.00,WeatherDisplay:10.37,2013-10-23 02:21:00,
2013-10-22 21:26:00,39.4,34.7,30.20,North,360,3.5,3.5,83,0.00,CLR,,0.00,WeatherDisplay:10.37,2013-10-23 02:26:00,
2013-10-22 21:31:00,39.2,34.5,30.20,North,360,3.5,3.5,83,0.00,CLR,,0.00,WeatherDisplay:10.37,2013-10-23 02:31:00,
2013-10-22 21:36:00,39.0,34.3,30.21,North,360,0.0,0.0,83,0.00,CLR,,0.00,WeatherDisplay:10.37,2013-10-23 02:36:00,
2013-10-22 21:41:00,38.8,34.4,30.21,North,360,1.2,1.2,84,0.00,CLR,,0.00,WeatherDisplay:10.37,2013-10-23 02:41:00,
2013-10-22 21:46:00,38.6,34.2,30.21,North,360,1.0,0.0,84,0.00,CLR,,0.00,WeatherDisplay:10.37,2013-10-23 02:46:00,
2013-10-22 21:51:00,38.3,34.2,30.22,North,360,0.0,0.0,85,0.00,CLR,,0.00,WeatherDisplay:10.37,2013-10-23 02:51:00,
2013-10-22 21:56:00,38.1,34.0,30.22,North,360,1.2,1.2,85,0.00,CLR,,0.00,WeatherDisplay:10.37,2013-10-23 02:56:00,
2013-10-22 22:01:00,37.9,34.1,30.21,North,360,1.2,1.2,86,0.00,CLR,,0.00,WeatherDisplay:10.37,2013-10-23 03:01:00,
2013-10-22 22:06:00,37.7,33.9,30.21,North,355,1.2,1.2,86,0.00,CLR,,0.00,WeatherDisplay:10.37,2013-10-23 03:06:00,
2013-10-22 22:11:00,37.5,33.7,30.21,North,351,1.2,1.2,86,0.00,CLR,,0.00,WeatherDisplay:10.37,2013-10-23 03:11:00,
2013-10-22 22:17:00,37.2,33.7,30.21,North,351,0.0,0.0,87,0.00,CLR,,0.00,WeatherDisplay:10.37,2013-10-23 03:17:00,
2013-10-22 22:22:00,36.8,33.3,30.21,West,277,3.5,3.5,87,0.00,CLR,,0.00,WeatherDisplay:10.37,2013-10-23 03:22:00,
2013-10-22 22:27:00,36.6,33.4,30.21,West,275,0.0,0.0,88,0.00,CLR,,0.00,WeatherDisplay:10.37,2013-10-23 03:27:00,
2013-10-22 22:32:00,36.4,33.2,30.21,West,275,1.2,1.2,88,0.00,CLR,,0.00,WeatherDisplay:10.37,2013-10-23 03:32:00,
2013-10-22 22:37:00,36.1,33.2,30.21,West,275,0.0,0.0,89,0.00,CLR,,0.00,WeatherDisplay:10.37,2013-10-23 03:37:00,
2013-10-22 22:42:00,35.9,33.0,30.21,West,275,1.2,1.2,89,0.00,CLR,,0.00,WeatherDisplay:10.37,2013-10-23 03:42:00,
2013-10-22 22:47:00,35.4,32.5,30.21,West,276,2.3,2.3,89,0.00,CLR,,0.00,WeatherDisplay:10.37,2013-10-23 03:47:00,
2013-10-22 22:52:00,35.1,32.5,30.21,West,275,1.2,1.2,90,0.00,CLR,,0.00,WeatherDisplay:10.37,2013-10-23 03:52:00,
2013-10-22 22:57:00,34.8,32.2,30.21,West,275,1.2,1.2,90,0.00,CLR,,0.00,WeatherDisplay:10.37,2013-10-23 03:57:00,
2013-10-22 23:01:00,34.6,32.2,30.21,West,275,1.2,0.0,91,0.00,CLR,,0.00,WeatherDisplay:10.37,2013-10-23 04:01:00,
2013-10-22 23:06:00,34.3,31.9,30.21,West,275,1.2,1.2,91,0.00,CLR,,0.00,WeatherDisplay:10.37,2013-10-23 04:06:00,
2013-10-22 23:11:00,34.1,31.7,30.22,West,275,0.0,0.0,91,0.00,CLR,,0.00,WeatherDisplay:10.37,2013-10-23 04:11:00,
2013-10-22 23:16:00,33.9,31.8,30.22,West,275,1.2,1.2,92,0.00,CLR,,0.00,WeatherDisplay:10.37,2013-10-23 04:16:00,
2013-10-22 23:21:00,33.6,31.3,30.22,West,276,0.0,0.0,91,0.00,CLR,,0.00,WeatherDisplay:10.37,2013-10-23 04:21:00,
2013-10-22 23:26:00,33.3,31.2,30.21,West,275,1.2,1.2,92,0.00,CLR,,0.00,WeatherDisplay:10.37,2013-10-23 04:26:00,
2013-10-22 23:31:00,33.0,30.9,30.21,West,277,2.3,2.3,92,0.00,CLR,,0.00,WeatherDisplay:10.37,2013-10-23 04:31:00,
2013-10-22 23:36:00,32.7,30.6,30.22,West,275,1.2,1.2,92,0.00,CLR,,0.00,WeatherDisplay:10.37,2013-10-23 04:36:00,
2013-10-22 23:41:00,32.4,30.3,30.21,West,275,1.2,1.2,92,0.00,CLR,,0.00,WeatherDisplay:10.37,2013-10-23 04:41:00,
2013-10-22 23:46:00,32.2,30.1,30.21,West,275,1.2,1.2,92,0.00,CLR,,0.00,WeatherDisplay:10.37,2013-10-23 04:46:00,
2013-10-22 23:51:00,32.0,30.2,30.21,West,275,1.2,1.2,93,0.00,CLR,,0.00,WeatherDisplay:10.37,2013-10-23 04:51:00,
2013-10-22 23:56:00,31.8,30.0,30.21,West,275,1.2,1.2,93,0.00,CLR,,0.00,WeatherDisplay:10.37,2013-10-23 04:56:00,